Ravenna, OH

8:42 PM EDT on April 22, 2018 (GMT -0400)
Ravenna

Weather History for KPOV - November, 2012

Change the Weather History Date:

Sunday, November 11, 2012

  Actual Average (KCAK) Record (KCAK)
Temperature  
Mean Temperature 58 °F -  
Max Temperature 67 °F 47 °F 72 °F (1915)
Min Temperature 49 °F 35 °F 18 °F (1957)
Degree Days  
Heating Degree Days 7    
Growing Degree Days 8 (Base 50)    
Moisture  
Dew Point 34 °F    
Average Humidity 40    
Maximum Humidity 56    
Minimum Humidity 28    
Precipitation  
Precipitation 0.00 in - - ()
Sea Level Pressure  
Sea Level Pressure 30.21 in    
Wind  
Wind Speed 4 mph (SSE)    
Max Wind Speed 12 mph    
Max Gust Speed 21 mph    
Visibility 10 miles    
Events      
Averages and records for this station are not official NWS values.
T = Trace of Precipitation, MM = Missing Value Source: NWS Daily Summary

Daily Weather History Graph

Daily Weather History Graph

Search for Another Location

Airport or City:

Astronomy

Nov. 11, 2012 Rise Set
Actual Time 7:08 AM EST 5:08 PM EST
Civil Twilight 6:39 AM EST 5:38 PM EST
Nautical Twilight 6:06 AM EST 6:11 PM EST
Astronomical Twilight 5:33 AM EST 6:43 PM EST
Moon 4:19 AM EST (11/11) 3:32 PM EST (11/11)
Length of Visible Light 10h 58m
Length of Day
10h 00m
Waning Crescent, 7% of the Moon is Illuminated
Nov 11
Waning Crescent
Nov 13
New
Nov 20
First Quarter
Nov 28
Full
Dec 6
Last Quarter

Hourly Weather History & Observations

Time (EST) Temp. Dew Point Humidity Pressure Visibility Wind Dir Wind Speed Gust Speed Precip Events Conditions
12:14 AM 51.8 °F 36.5 °F 56% 30.19 in 10.0 mi Calm Calm - N/A   Clear
12:34 AM 53.2 °F 36.5 °F 53% 30.19 in 10.0 mi South 3.5 mph - N/A   Clear
12:54 AM 53.6 °F 36.1 °F 52% 30.18 in 10.0 mi South 4.6 mph - N/A   Clear
1:14 AM 54.1 °F 36.0 °F 50% 30.18 in 10.0 mi South 3.5 mph - N/A   Clear
1:34 AM 54.3 °F 35.6 °F 49% 30.18 in 10.0 mi South 3.5 mph - N/A   Clear
1:54 AM 54.3 °F 35.2 °F 49% 30.19 in 10.0 mi SSW 4.6 mph - N/A   Clear
2:14 AM 54.5 °F 35.1 °F 48% 30.19 in 10.0 mi Calm Calm - N/A   Clear
2:34 AM 53.4 °F 35.1 °F 50% 30.19 in 10.0 mi South 4.6 mph - N/A   Scattered Clouds
2:54 AM 54.0 °F 34.7 °F 48% 30.19 in 10.0 mi SSE 5.8 mph - N/A   Scattered Clouds
3:14 AM 54.1 °F 34.5 °F 48% 30.20 in 10.0 mi South 4.6 mph - N/A   Scattered Clouds
3:34 AM 54.7 °F 34.0 °F 46% 30.20 in 10.0 mi South 3.5 mph - N/A   Clear
3:54 AM 54.1 °F 34.0 °F 47% 30.21 in 10.0 mi Calm Calm - N/A   Clear
4:14 AM 53.6 °F 33.8 °F 47% 30.22 in 10.0 mi SSE 3.5 mph - N/A   Clear
4:34 AM 53.4 °F 33.6 °F 47% 30.22 in 10.0 mi SSE 4.6 mph - N/A   Clear
4:54 AM 53.2 °F 33.6 °F 47% 30.23 in 10.0 mi Calm Calm - N/A   Clear
5:14 AM 51.3 °F 33.8 °F 51% 30.24 in 10.0 mi Calm Calm - N/A   Clear
5:34 AM 51.4 °F 33.3 °F 50% 30.24 in 10.0 mi Calm Calm - N/A   Clear
5:54 AM 50.9 °F 33.6 °F 52% 30.25 in 10.0 mi South 3.5 mph - N/A   Clear
6:34 AM 51.8 °F 33.4 °F 50% 30.27 in 10.0 mi Calm Calm - N/A   Clear
6:54 AM 50.4 °F 33.4 °F 52% 30.27 in 10.0 mi Calm Calm - N/A   Clear
7:14 AM 49.8 °F 33.6 °F 54% 30.28 in 10.0 mi Calm Calm - N/A   Clear
7:34 AM 49.5 °F 33.8 °F 55% 30.28 in 10.0 mi South 3.5 mph - N/A   Clear
7:54 AM 50.5 °F 34.3 °F 54% 30.29 in 10.0 mi Calm Calm - N/A   Clear
8:34 AM 54.5 °F 34.9 °F 48% 30.29 in 10.0 mi South 3.5 mph - N/A   Clear
8:55 AM 56.1 °F 35.4 °F 46% 30.29 in 10.0 mi South 5.8 mph - N/A   Clear
9:14 AM 57.6 °F 35.8 °F 44% 30.29 in 10.0 mi South 6.9 mph - N/A   Clear
9:34 AM 59.2 °F 36.3 °F 43% 30.30 in 10.0 mi SSW 8.1 mph - N/A   Clear
9:55 AM 60.8 °F 36.7 °F 41% 30.30 in 10.0 mi SSW 9.2 mph - N/A   Clear
10:14 AM 62.1 °F 36.3 °F 38% 30.29 in 10.0 mi SSW 5.8 mph - N/A   Clear
10:34 AM 63.0 °F 36.0 °F 37% 30.28 in 10.0 mi SSW 11.5 mph 16.1 mph N/A   Clear
10:54 AM 62.4 °F 35.4 °F 37% 30.28 in 10.0 mi South 9.2 mph 17.3 mph N/A   Clear
11:14 AM 63.0 °F 35.4 °F 36% 30.27 in 10.0 mi SSW 8.1 mph 17.3 mph N/A   Clear
11:34 AM 63.0 °F 34.7 °F 35% 30.27 in 10.0 mi SSW 10.4 mph 16.1 mph N/A   Clear
11:54 AM 63.9 °F 34.7 °F 34% 30.26 in 10.0 mi SSW 11.5 mph 19.6 mph N/A   Clear
12:14 PM 64.6 °F 34.3 °F 32% 30.25 in 10.0 mi SSW 11.5 mph 19.6 mph N/A   Clear
12:34 PM 65.3 °F 34.5 °F 32% 30.25 in 10.0 mi SSW 8.1 mph 16.1 mph N/A   Clear
1:14 PM 66.4 °F 33.3 °F 29% 30.23 in 10.0 mi SSW 10.4 mph 18.4 mph N/A   Clear
1:34 PM 65.3 °F 33.1 °F 30% 30.23 in 10.0 mi South 9.2 mph 18.4 mph N/A   Clear
1:54 PM 66.0 °F 31.8 °F 28% 30.22 in 10.0 mi SSW 9.2 mph 17.3 mph N/A   Clear
2:14 PM 65.7 °F 32.0 °F 29% 30.22 in 10.0 mi SSW 9.2 mph 20.7 mph N/A   Clear
2:34 PM 67.3 °F 33.3 °F 28% 30.22 in 10.0 mi SSW 8.1 mph - N/A   Clear
2:54 PM 66.6 °F 33.4 °F 29% 30.19 in 10.0 mi South 3.5 mph - N/A   Clear
3:14 PM 66.2 °F 33.8 °F 30% 30.18 in 10.0 mi SSE 4.6 mph - N/A   Clear
3:34 PM 66.4 °F 33.6 °F 30% 30.19 in 10.0 mi South 9.2 mph - N/A   Clear
3:54 PM 66.0 °F 33.1 °F 29% 30.19 in 10.0 mi SSE 6.9 mph - N/A   Clear
4:14 PM 64.9 °F 33.3 °F 31% 30.19 in 10.0 mi SSE 6.9 mph - N/A   Clear
4:34 PM 63.5 °F 33.1 °F 32% 30.19 in 10.0 mi SE 5.8 mph - N/A   Clear
4:55 PM 62.8 °F 33.3 °F 33% 30.18 in 10.0 mi SSE 4.6 mph - N/A   Clear
5:14 PM 62.1 °F 33.1 °F 34% 30.18 in 10.0 mi SE 4.6 mph - N/A   Clear
5:34 PM 59.9 °F 34.2 °F 38% 30.18 in 10.0 mi SE 5.8 mph - N/A   Clear
5:54 PM 59.0 °F 34.0 °F 39% 30.19 in 10.0 mi SE 3.5 mph - N/A   Clear
6:14 PM 59.9 °F 33.6 °F 37% 30.19 in 10.0 mi SSE 3.5 mph - N/A   Clear
6:34 PM 58.6 °F 33.6 °F 39% 30.19 in 10.0 mi SE 3.5 mph - N/A   Clear
6:54 PM 57.7 °F 34.0 °F 41% 30.18 in 10.0 mi SE 3.5 mph - N/A   Clear
7:14 PM 57.4 °F 34.2 °F 42% 30.18 in 10.0 mi SE 5.8 mph - N/A   Clear
7:34 PM 57.4 °F 33.8 °F 41% 30.17 in 10.0 mi SE 4.6 mph - N/A   Clear
7:55 PM 57.7 °F 33.1 °F 39% 30.17 in 10.0 mi SE 5.8 mph - N/A   Clear
8:14 PM 57.6 °F 32.9 °F 39% 30.16 in 10.0 mi SE 4.6 mph - N/A   Clear
8:34 PM 57.9 °F 32.2 °F 38% 30.16 in 10.0 mi SE 4.6 mph - N/A   Clear
8:54 PM 57.7 °F 31.8 °F 37% 30.16 in 10.0 mi SE 4.6 mph - N/A   Clear
9:14 PM 57.7 °F 31.8 °F 37% 30.16 in 10.0 mi SE 4.6 mph - N/A   Clear
9:34 PM 57.6 °F 31.6 °F 37% 30.15 in 10.0 mi SE 3.5 mph - N/A   Clear
9:54 PM 58.1 °F 31.1 °F 36% 30.15 in 10.0 mi SE 3.5 mph - N/A   Clear
10:14 PM 58.1 °F 30.9 °F 36% 30.14 in 10.0 mi SE 5.8 mph - N/A   Clear
10:34 PM 57.7 °F 30.9 °F 36% 30.14 in 10.0 mi SE 8.1 mph - N/A   Clear
10:54 PM 59.0 °F 30.4 °F 34% 30.13 in 10.0 mi SE 5.8 mph - N/A   Clear
11:14 PM 60.1 °F 30.9 °F 33% 30.12 in 10.0 mi SE 5.8 mph - N/A   Clear
11:34 PM 61.5 °F 31.3 °F 32% 30.12 in 10.0 mi South 5.8 mph - N/A   Clear
11:55 PM 61.5 °F 31.5 °F 32% 30.12 in 10.0 mi South 6.9 mph - N/A   Scattered Clouds